Regional Weather Roundup
Issued by NWS

Home | Current Version | Previous Version | Graphics & Text | Print | Product List | Glossary On
Versions: 1 2 3 4 5 6 7 8 9 10 11 12 13 14 15 16 17 18 19 20 21 22 23 24 25 26 27 28 29 30 31 32 33 34 35 36 37 38 39 40 41 42 43 44 45 46 47 48 49 50
000
ASUS43 KDMX 271303
RWRIA

WEATHER ROUNDUP FOR IOWA
NATIONAL WEATHER SERVICE DES MOINES IA
800 AM CDT TUE SEP 27 2016

NOTE: "FAIR" INDICATES FEW OR NO CLOUDS BELOW 12,000 FEET WITH NO
SIGNIFICANT WEATHER AND/OR OBSTRUCTIONS TO VISIBILITY.

* - THESE STATIONS ARE NOT NWS STATIONS...THUS NOT UNDER NWS
QUALITY CONTROL.  THEY ALSO DO NOT REPORT WEATHER SUCH
AS PRECIPITATION OR FOG.

IAZ001>003-012>014-020>022-031>034-043>046-271400-
   NORTHWEST IOWA

CITY           SKY/WX    TMP DP  RH WIND       PRES   REMARKS
CARROLL *      CLEAR     48  43  81 W7        30.00S
CHEROKEE *     CLEAR     45  40  82 CALM      30.00F
DENISON *      CLEAR     45  43  93 CALM      30.00S
LE MARS *      CLEAR     46  41  81 CALM      30.02F
ORANGE CITY *  CLEAR     43  37  81 W5        30.00F
SHELDON *      CLEAR     43  39  87 CALM      29.99R
SIOUX CITY     CLEAR     47  42  83 CALM      30.03S
SPENCER        CLEAR     44  39  82 W8        29.98F
STORM LAKE *   CLEAR     45  39  81 W9        30.00S
$$

IAZ055>058-069>071-079>083-090>094-271400-
   SOUTHWEST IOWA

CITY           SKY/WX    TMP DP  RH WIND       PRES   REMARKS
ATLANTIC *     CLEAR     48  45  87 CALM      30.03R
AUDUBON *      CLEAR     46  43  87 CALM      30.02S
CLARINDA *       N/A     46  46 100 MISG      30.04S
COUNCIL BLFS * CLEAR     52  46  82 CALM      30.03S
CRESTON *      CLEAR     48  45  87 NW5       30.03S
HARLAN  *      CLEAR     48  45  87 CALM      30.06R
LAMONI         CLEAR     52  46  80 NW6       30.01S
RED OAK *      CLEAR     46  46 100 CALM      30.04R
SHENANDOAH *   CLEAR     46  46 100 CALM      30.04S
$$

IAZ047>049-059>061-072>074-084-271400-
   CENTRAL IOWA

CITY           SKY/WX    TMP DP  RH WIND       PRES   REMARKS
AMES           CLEAR     49  43  80 W9        29.98R
ANKENY *         N/A    N/A N/A N/A MISG        N/A
BOONE *        CLEAR     48  41  76 W9        29.97S
CHARITON *       N/A     52  45  76 W7        29.99S
DES MOINES     PTCLDY    52  44  74 W5        29.99S
GRINNELL*      CLEAR     48  42  81 W5        29.97S
KNOXVILLE *    CLEAR     52  43  71 W6        29.98R
MARSHALLTOWN   CLEAR     46  41  82 W3        29.95R
NEWTON *       CLEAR     48  43  81 W6        29.97S
PELLA *        CLEAR     53  46  74 W6        29.99S
PERRY *          N/A     47  44  89 W7        29.99S
$$

IAZ004>006-015-016-023>025-035-036-271400-
   NORTH CENTRAL IOWA

CITY           SKY/WX    TMP DP  RH WIND       PRES   REMARKS
ALGONA *       CLEAR     46  39  76 W9        29.95F
CLARION *      CLEAR     46  41  81 W8        29.96R
ESTHERVILLE    CLEAR     46  38  73 W9        29.95S
FORT DODGE *   CLEAR     45  37  76 W3        29.98S
MASON CITY     CLEAR     45  39  79 W10       29.94S
FOREST CITY *    N/A     45  37  76 W7        29.93S
WEBSTER CITY * CLEAR     45  41  87 W7        29.95S
IOWA FALLS *     N/A     44  40  86 W3        29.96S
$$

IAZ007>011-017>019-026>030-037>042-050>054-066-271400-
   NORTHEAST IOWA

CITY           SKY/WX    TMP DP  RH WIND       PRES   REMARKS
CEDAR RAPIDS   SUNNY     47  43  86 W8        29.92S
CHARLES CITY * CLEAR     46  39  76 W9G16     29.91S
CLINTON *      SUNNY     48  44  86 W7        29.91S
DECORAH *      CLEAR     46  39  76 VRB5G12   29.86R
DUBUQUE        SUNNY     46  40  79 W10       29.88S
MONTICELLO *   SUNNY     48  41  76 W7        29.90R
OELWEIN *      CLEAR     45  41  87 W10       29.91S
WATERLOO       CLEAR     49  39  68 W7        29.92R
$$

IAZ064-065-067-068-078-271400-
   EAST CENTRAL IOWA

CITY           SKY/WX    TMP DP  RH WIND       PRES   REMARKS
DAVENPORT      SUNNY     50  42  74 W7        29.92S
IOWA CITY      SUNNY     50  42  74 W8        29.95S
MUSCATINE *    SUNNY     52  45  76 W6        29.94S
QUAD CITIES    SUNNY     52  44  74 W7        29.92S
$$

IAZ062-063-075>077-085>089-095>099-271400-
   SOUTHEAST IOWA

CITY           SKY/WX    TMP DP  RH WIND       PRES   REMARKS
BURLINGTON     MOSUNNY   52  46  80 NW6       29.95S
FAIRFIELD *    SUNNY     48  45  87 W8        29.96S
FORT MADISON * SUNNY     54  46  76 W7        29.97S
KEOKUK *       SUNNY     52  46  82 W6        29.96S
OSKALOOSA *      N/A     47  44  87 W5        29.98S
CENTERVILLE *    N/A     52  45  76 W5        30.00S
OTTUMWA          N/A    N/A N/A N/A W7        29.98R
$$

ABBREVIATIONS USED IN REMARKS
   TC - TEMPERATURES IN CELSIUS
  WCI - WIND CHILL INDEX
   HX - HEAT INDEX
  VSB - VISIBILITY
$$




USA.gov is the U.S. government's official web portal to all federal, state and local government web resources and services.